Location: Be Sali
(6.5823°N, 10.8910°W)
Time: 05:27:40
(UTC+00:00)

Daily predictions for brighter satellites

Satellite Brightness Start Highest point End
(mag) Time Altitude Azimuth Time Altitude Azimuth Time Altitude Azimuth
BLOCK DM-SL R/B 4.0 03:38:35 64° SSE 03:38:35 64° SSE 09:46:46 10° E
ARIANE 5 R/B 4.4 03:45:35 10° NNE 03:47:40 24° NE 03:47:40 24° NE
ATLAS 2A CENTAUR R/B 4.4 03:59:39 37° WNW 04:02:58 42° NNW 04:09:55 10° NE
Lacrosse 4 Rocket 4.3 04:11:23 11° SE 04:12:47 12° ESE 04:14:29 10° E
SWIFT 4.4 04:14:19 26° NE 04:14:19 26° NE 04:16:43 10° E
BLOCK DM-SL 3.8 04:12:31 78° SW 04:12:56 82° S 04:25:12 10° E
Cosmos 1943 3.9 04:16:47 44° N 04:16:47 44° N 04:20:42 10° N
Sylda 5 4.0 04:20:33 22° SE 04:20:33 22° SE 04:22:40 10° ESE
ATLAS 3B CENTAUR R/B 2.4 04:22:08 55° ESE 04:22:08 55° ESE 04:28:13 10° ENE
Cosmos 2181 Rocket 3.9 04:23:29 77° SSW 04:24:00 88° W 04:30:19 10° N
CZ-2C R/B 4.2 04:19:17 10° N 04:21:15 23° NNW 04:21:15 23° NNW
NOSS 3-1 (A) 4.2 04:16:38 10° NNW 04:25:31 81° WSW 04:34:44 10° SSE
Ariane H10-3 3.9 04:28:46 19° E 04:28:46 19° E 04:29:27 10° E
CZ-4C R/B 3.1 04:18:49 10° NNW 04:27:22 70° WSW 04:36:00 10° SSE
GPS 2-12 Rocket1 3.8 04:29:07 49° NE 04:29:07 49° NE 04:32:37 10° ENE
Cosmos 1269 Rocket 4.0 04:24:11 10° N 04:29:09 79° NNE 04:29:09 79° NNE
Cosmos 2327 Rocket 4.4 04:24:11 10° N 04:30:32 72° W 04:31:01 69° SW
ARIANE 5 DEB (SYLDA) 4.2 04:31:25 60° W 04:32:47 90° NNW 04:51:58 10° E
Cosmos 1241 Rocket 4.3 04:33:23 66° SSW 04:34:20 87° WNW 04:40:32 10° NNE
Cosmos 1420 Rocket 4.4 04:34:25 43° SSE 04:35:51 58° ESE 04:40:54 10° NNE
Cosmos 1371 Rocket 3.8 04:37:37 82° WSW 04:37:45 84° WNW 04:42:55 10° N
Chandra Rocket (1) 3.1 04:46:20 25° ESE 04:46:20 25° ESE 04:47:28 10° ESE
ARIANE 5 R/B 3.0 04:46:19 50° S 04:46:20 50° S 04:56:35 10° E
Cosmos 1484 Rocket 3.6 04:45:56 10° N 04:48:37 41° NNW 04:48:37 41° NNW
OAO 3 Rocket 3.0 04:53:25 58° WNW 04:54:17 77° SW 04:59:02 10° SE
CZ-4B R/B 3.6 04:50:03 10° NNE 04:55:16 81° ESE 04:58:41 23° S
Cosmos 962 Rocket 4.4 04:52:12 10° NNW 04:58:12 63° W 05:04:15 10° S
Cosmos 1726 Rocket 3.6 04:57:04 10° N 05:01:26 76° E 05:05:46 10° S
Cosmos 1408 3.9 05:11:21 24° NW 05:11:21 24° NW 05:13:23 10° NNW
Ariane H10 3.5 05:08:40 30° WSW 05:10:53 41° SSW 05:13:54 10° SE
ATLAS 5 CENTAUR R/B 4.2 05:06:23 21° SW 05:12:36 31° S 05:46:14 10° ESE
PSLV R/B 3.5 05:09:24 10° N 05:13:41 61° WNW 05:16:01 26° SSW
SL-08 R/B 3.3 05:09:05 10° SSE 05:13:42 78° ENE 05:18:17 10° N
Cosmos 1892 3.5 05:15:08 31° WNW 05:15:08 31° WNW 05:18:12 10° NNW
CZ-2C R/B 3.0 05:13:29 15° S 05:15:04 20° SE 05:17:51 10° E
CZ-2C R/B 4.3 05:10:50 10° SE 05:15:30 34° ENE 05:20:07 10° NNE
Cosmos 864 Rocket 4.4 05:09:49 10° N 05:15:57 88° W 05:22:05 10° S
Cosmos 1825 1.9 05:14:44 25° SSW 05:16:46 74° W 05:20:28 10° N
Cosmos 1626 Rocket 3.6 05:17:23 19° SSW 05:20:23 58° W 05:24:44 10° N
Cosmos 2058 Rocket 3.3 05:16:06 10° N 05:20:25 68° E 05:24:44 10° S
In-Cosmos 22 Rocket 4.4 05:17:16 17° SSW 05:21:25 51° W 05:26:58 10° N
Cosmos 1943 Rocket 2.2 05:16:34 10° NNW 05:22:07 59° WSW 05:27:37 10° S
Cosmos 2341 Rocket 4.3 05:16:36 10° NNW 05:22:35 44° W 05:28:36 10° SSW
Cosmos 2056 Rocket 4.5 05:22:37 24° W 05:23:40 25° WNW 05:27:51 10° NNW
CZ-2C R/B 3.6 05:18:26 10° NNE 05:24:07 66° ESE 05:29:35 10° S
Cosmos 2369 Rocket 3.7 05:19:28 10° N 05:24:38 39° ENE 05:29:48 10° SE
Meteor 2-1 Rocket 4.4 05:20:09 10° NNW 05:25:35 50° W 05:30:57 10° SSW
Envisat 3.3 05:24:13 10° N 05:29:03 47° WNW 05:33:35 12° SSW
Okean 1-7 Rocket 4.3 05:26:59 22° SW 05:29:05 33° W 05:33:06 10° NNW
CZ-3C R/B 3.4 05:29:08 13° WNW 05:32:15 38° N 05:46:59 10° ENE
Ariane H10 3.8 05:29:51 21° SW 05:32:27 52° SSE 05:48:36 10° E
YAOGAN 6 3.7 05:30:13 10° NNW 05:33:14 25° WNW 05:34:24 21° WSW
SJ-12 3.8 05:30:18 10° N 05:34:19 74° WNW 05:38:22 10° SSW
Meteor 1-31 Rocket 3.7 05:33:46 10° NNE 05:37:24 47° ESE 05:41:02 10° S
Cosmos 2251 Rocket 3.5 05:33:25 10° NNW 05:38:41 86° WSW 05:44:01 10° S
Cosmos 2366 rocket 4.2 05:34:05 10° NNW 05:39:56 47° W 05:45:53 10° SSW
Delta 198 4.0 05:36:29 18° WSW 05:40:17 80° SSE 05:46:10 10° ENE
MINOTAUR 4 R/B 4.4 05:38:57 10° S 05:42:15 40° WSW 05:45:32 10° NNW
Cosmos 1758 Rocket 3.5 05:38:36 10° S 05:43:03 73° W 05:47:27 10° N
ARIANE 44LP R/B 3.9 05:42:38 11° SSW 05:43:19 13° S 05:44:29 10° SE
Cosmos 2058 4.4 05:40:00 10° SSE 05:43:46 38° E 05:47:33 10° NNE
NOAA 11 4.2 05:39:26 10° N 05:44:53 79° WNW 05:50:20 10° SSW
H-2A R/B 3.8 05:46:18 10° NNW 05:49:16 24° WNW 05:52:13 10° SW
Lacrosse 4 Rocket 2.5 05:47:43 12° SW 05:51:08 28° WNW 05:54:54 10° N
Cosmos 1110 Rocket 4.2 05:46:26 10° S 05:51:34 74° ESE 05:56:42 10° NNE
DELTA 2 R/B (1) 4.1 05:47:17 10° SW 05:52:43 56° SE 05:58:08 10° ENE
SWIFT 2.3 05:50:32 10° WNW 05:54:45 69° SSW 05:58:57 10° ESE
SL-08 R/B 4.5 05:52:15 10° N 05:58:25 76° W 06:04:43 10° S
COSMO-SKYMED 1 4.2 05:57:58 10° SSE 06:02:01 40° ENE 06:06:04 10° N
FALCON 9 R/B 2.1 06:02:28 10° NW 06:07:25 45° NNE 06:09:51 10° ESE
CZ-3C R/B 3.7 06:11:30 10° WSW 07:03:10 58° NNW 07:08:18 10° NE
